Weather History for Torrington, WY

Change the Weather History Date:

Saturday, March 30, 2013

  Actual Average Record
Temperature  
Mean Temperature 40 °F 42 °F  
Max Temperature 51 °F 55 °F 80 °F (2010)
Min Temperature 29 °F 28 °F 15 °F (2007)
Degree Days  
Heating Degree Days 25 23  
Month to date heating degree days 830 817  
Since 1 July heating degree days 5443 5661  
Cooling Degree Days 0 0  
Month to date cooling degree days 0 0  
Year to date cooling degree days 0 0  
Moisture  
Dew Point 32 °F    
Average Humidity 68    
Maximum Humidity 85    
Minimum Humidity 50    
Precipitation  
Precipitation T in 0.03 in 0.08 in (2008)
Month to date precipitation 0.15 0.71  
Year to date precipitation 0.54 1.31  
Sea Level Pressure  
Sea Level Pressure 30.10 in    
Wind  
Wind Speed 8 mph (NW)    
Max Wind Speed 26 mph    
Max Gust Speed 33 mph    
Visibility 10 miles    
Events Rain    
T = Trace of Precipitation, MM = Missing Value Source: NWS Daily Summary

Daily Weather History Graph

Daily Weather History Graph

Search for Another Location

Airport:

Trip Planner

Search our weather history database for the weather conditions in past years. The results will help you decide how hot, cold, wet, or windy it might be!

Date:

Astronomy

Mar. 30, 2013 Rise Set
Actual Time 6:42 AM MDT 7:20 PM MDT
Civil Twilight 6:14 AM MDT 7:48 PM MDT
Nautical Twilight 5:40 AM MDT 8:21 PM MDT
Astronomical Twilight 5:06 AM MDT 8:56 PM MDT
Moon 11:33 PM MDT (3/30) 8:35 AM MDT (3/30)
Length of Visible Light 13h 34m
Length of Day
12h 38m
Waning Gibbous, 86% of the Moon is Illuminated
Mar 30
Waning Gibbous
Apr 2
Last Quarter
Apr 10
New
Apr 18
First Quarter
Apr 25
Full

Hourly Weather History & Observations

Time (MDT) Temp. Windchill Dew Point Humidity Pressure Visibility Wind Dir Wind Speed Gust Speed Precip Events Conditions
12:53 AM 43.0 °F 37.7 °F 30.9 °F 62% 30.01 in 10.0 mi WNW 9.2 mph - N/A   Mostly Cloudy
1:53 AM 42.1 °F 36.6 °F 30.0 °F 62% 30.01 in 10.0 mi WNW 9.2 mph - N/A   Clear
2:53 AM 41.0 °F 35.8 °F 30.9 °F 67% 30.04 in 10.0 mi NW 8.1 mph - N/A   Partly Cloudy
3:53 AM 37.0 °F 32.4 °F 30.9 °F 79% 30.05 in 10.0 mi West 5.8 mph - N/A   Clear
4:53 AM 39.0 °F 33.4 °F 30.9 °F 73% 30.05 in 10.0 mi NNW 8.1 mph - N/A   Scattered Clouds
5:53 AM 37.9 °F 35.5 °F 30.9 °F 76% 30.05 in 10.0 mi NNW 3.5 mph - N/A   Clear
6:53 AM 34.0 °F 31.0 °F 28.9 °F 82% 30.09 in 10.0 mi West 3.5 mph - N/A   Clear
7:53 AM 37.0 °F 31.6 °F 32.0 °F 82% 30.10 in 10.0 mi West 6.9 mph - N/A   Partly Cloudy
8:53 AM 43.0 °F 38.8 °F 34.0 °F 71% 30.10 in 10.0 mi WNW 6.9 mph - N/A   Overcast
9:53 AM 46.0 °F 42.5 °F 35.1 °F 66% 30.08 in 10.0 mi WNW 6.9 mph - N/A   Overcast
10:53 AM 46.9 °F - 35.1 °F 63% 30.08 in 10.0 mi NNW 9.2 mph - N/A   Overcast
11:53 AM 48.0 °F - 35.1 °F 61% 30.08 in 10.0 mi North 10.4 mph - N/A   Overcast
12:53 PM 46.0 °F 39.6 °F 36.0 °F 68% 30.10 in 10.0 mi North 15.0 mph - N/A   Overcast
1:53 PM 46.9 °F - 37.0 °F 68% 30.11 in 10.0 mi North 12.7 mph 18.4 mph 0.00 in Rain Light Rain
2:53 PM 48.9 °F - 34.0 °F 56% 30.08 in 10.0 mi WNW 8.1 mph - 0.00 in   Overcast
3:53 PM 51.1 °F - 34.0 °F 52% 30.09 in 10.0 mi WNW 9.2 mph - N/A   Overcast
4:53 PM 48.9 °F - 33.1 °F 54% 30.10 in 10.0 mi NNW 23.0 mph 33.4 mph 0.00 in   Mostly Cloudy
5:53 PM 50.0 °F - 33.1 °F 52% 30.11 in 10.0 mi NNW 16.1 mph 23.0 mph N/A   Mostly Cloudy
6:53 PM 48.9 °F - 30.9 °F 50% 30.12 in 10.0 mi NW 13.8 mph 19.6 mph N/A   Clear
7:53 PM 45.0 °F 41.2 °F 33.1 °F 63% 30.14 in 10.0 mi NNW 6.9 mph - N/A   Scattered Clouds
8:53 PM 39.9 °F - 32.0 °F 73% 30.17 in 10.0 mi Calm Calm - N/A   Clear
9:53 PM 39.9 °F 37.8 °F 33.1 °F 77% 30.17 in 10.0 mi WSW 3.5 mph - N/A   Clear
10:53 PM 36.0 °F 32.1 °F 28.9 °F 76% 30.17 in 10.0 mi West 4.6 mph - N/A   Clear
11:53 PM 30.9 °F 25.2 °F 27.0 °F 85% 30.18 in 10.0 mi NNW 5.8 mph - N/A   Clear